Date String (YYYY-MM-DD hh:mm:ss) UTC,Instrument flags,Ambient pressure (hPa),Sample flow (lpm),Bypass flow (lpm),Sample temperature (°C),Ambient temperature (°C),ASC tube jacket temperature (°C),LED temperature (°C),Box temperature (°C),Sample RH (%),Span deviation,Mass concentration (μg/m³),Mass concentration (μg/m³),Mass concentration (μg/m³)
DateTimeUTC,F1_M11,P_M11,Q1_M11,Q2_M11,T1_M11,T2_M11,T3_M11,T4_M11,T5_M11,U1_M11,ZSPAN_M11,X0_M11,X2_M11,X1_M11
2021-11-19 01:00:00,,0827.7,5.00,0.00,24.6,23.8,00.0,33.6,26.5,07.0,0000.0,0019.86,0007.25,0005.68
2021-11-19 01:01:00,,0827.7,5.00,0.00,24.6,23.8,00.0,33.6,26.4,07.0,0000.0,0019.70,0007.24,0005.67
2021-11-19 01:02:00,,0827.7,5.01,0.00,24.6,23.8,00.0,33.6,26.5,07.0,0000.0,0019.88,0007.19,0005.66
2021-11-19 01:03:00,,0827.6,5.00,0.00,24.6,23.8,00.0,33.6,26.5,07.0,0000.0,0020.57,0007.18,0005.65
2021-11-19 01:04:00,,0827.5,5.00,0.00,24.6,23.8,00.0,33.6,26.5,07.0,0000.0,0019.27,0007.14,0005.64
2021-11-19 01:05:00,,0827.5,5.01,0.00,24.6,23.8,00.0,33.6,26.5,07.1,0000.0,0018.66,0007.10,0005.64
2021-11-19 01:06:00,,0827.5,4.99,0.00,24.6,23.8,00.0,33.6,26.4,07.1,0000.0,0018.97,0007.08,0005.63
2021-11-19 01:07:00,,0827.5,5.00,0.00,24.6,23.8,00.0,33.6,26.4,07.1,0000.0,0017.73,0007.04,0005.63
2021-11-19 01:08:00,,0827.5,5.01,0.00,24.6,23.8,00.0,33.6,26.4,07.1,0000.0,0018.12,0007.04,0005.63
2021-11-19 01:09:00,,0827.6,5.00,0.00,24.6,23.8,00.0,33.6,26.4,07.2,0000.0,0018.43,0007.07,0005.64
2021-11-19 01:10:00,,0827.6,4.99,0.00,24.5,23.7,00.0,33.6,26.3,07.4,0000.0,0018.37,0007.11,0005.63
2021-11-19 01:11:00,,0827.8,5.00,0.00,24.5,23.7,00.0,33.6,26.3,07.5,0000.0,0017.93,0007.15,0005.61
2021-11-19 01:12:00,,0827.7,5.00,0.00,24.5,23.7,00.0,33.6,26.3,07.8,0000.0,0017.34,0007.12,0005.59
2021-11-19 01:13:00,,0827.7,5.01,0.00,24.5,23.7,00.0,33.6,26.3,07.5,0000.0,0018.01,0007.16,0005.55
2021-11-19 01:14:00,,0827.6,5.01,0.00,24.5,23.6,00.0,33.5,26.2,07.6,0000.0,0018.55,0007.16,0005.50
2021-11-19 01:15:00,,0827.5,4.98,0.00,24.5,23.6,00.0,33.5,26.2,07.4,0000.0,0018.48,0007.11,0005.45
2021-11-19 01:16:00,,0827.5,5.00,0.00,24.5,23.6,00.0,33.5,26.3,07.3,0000.0,0018.78,0007.15,0005.41
2021-11-19 01:17:00,,0827.4,5.00,0.00,24.5,23.6,00.0,33.5,26.3,07.3,0000.0,0019.11,0007.09,0005.36
2021-11-19 01:18:00,,0827.3,5.00,0.00,24.5,23.6,00.0,33.5,26.3,07.3,0000.0,0020.08,0007.07,0005.31
2021-11-19 01:19:00,,0827.3,4.99,0.00,24.5,23.6,00.0,33.5,26.3,07.3,0001.6,0021.18,0007.09,0005.28
2021-11-19 01:20:00,,0827.3,5.00,0.00,24.5,23.6,00.0,33.5,26.3,07.1,0001.4,0021.71,0007.09,0005.26
2021-11-19 01:21:00,,0827.2,5.00,0.00,24.5,23.6,00.0,33.5,26.3,07.0,0000.0,0021.78,0007.01,0005.26
2021-11-19 01:22:00,,0827.4,5.01,0.00,24.5,23.6,00.0,33.5,26.3,07.1,0000.0,0022.87,0007.01,0005.27
2021-11-19 01:23:00,,0827.5,5.00,0.00,24.5,23.6,00.0,33.5,26.3,07.3,0000.0,0025.61,0007.08,0005.29
2021-11-19 01:24:00,,0827.5,4.99,0.00,24.5,23.6,00.0,33.5,26.3,07.4,0000.0,0025.27,0007.03,0005.31
2021-11-19 01:25:00,,0827.5,5.01,0.00,24.5,23.6,00.0,33.5,26.3,07.5,0000.0,0025.03,0007.02,0005.33
2021-11-19 01:26:00,,0827.6,4.99,0.00,24.5,23.7,00.0,33.5,26.3,07.5,0000.0,0026.37,0007.04,0005.37
2021-11-19 01:27:00,,0827.5,5.00,0.00,24.5,23.6,00.0,33.5,26.3,07.6,0000.0,0026.88,0007.02,0005.41
2021-11-19 01:28:00,,0827.4,5.00,0.00,24.5,23.6,00.0,33.5,26.3,07.7,0000.0,0026.22,0007.09,0005.45
2021-11-19 01:29:00,,0827.3,4.98,0.00,24.5,23.6,00.0,33.5,26.3,07.8,0000.0,0026.75,0007.19,0005.49
2021-11-19 01:30:00,,0827.5,5.01,0.00,24.5,23.6,00.0,33.5,26.3,07.9,0000.0,0027.26,0007.23,0005.53
2021-11-19 01:31:00,,0827.4,4.99,0.00,24.4,23.6,00.0,33.5,26.2,07.8,0000.0,0025.71,0007.24,0005.56
2021-11-19 01:32:00,,0827.5,5.00,0.00,24.4,23.5,00.0,33.5,26.2,07.8,0000.0,0025.18,0007.30,0005.59
2021-11-19 01:33:00,,0827.5,5.01,0.00,24.4,23.5,00.0,33.5,26.2,07.9,0000.0,0024.65,0007.34,0005.61
2021-11-19 01:34:00,,0827.5,4.98,0.00,24.4,23.5,00.0,33.5,26.2,07.9,0000.0,0022.27,0007.31,0005.63
2021-11-19 01:35:00,,0827.5,5.00,0.00,24.4,23.5,00.0,33.4,26.2,07.9,0000.0,0022.77,0007.35,0005.64
2021-11-19 01:36:00,,0827.4,4.99,0.00,24.4,23.6,00.0,33.4,26.2,07.9,0001.7,0022.09,0007.44,0005.67
2021-11-19 01:37:00,,0827.4,5.00,0.00,24.4,23.6,00.0,33.4,26.2,08.0,0004.4,0021.81,0007.51,0005.68
2021-11-19 01:38:00,,0827.5,5.00,0.00,24.4,23.6,00.0,33.4,26.2,08.2,0004.7,0021.44,0007.53,0005.70
2021-11-19 01:39:00,,0827.4,4.99,0.00,24.4,23.6,00.0,33.4,26.3,08.1,0004.4,0021.51,0007.58,0005.73
2021-11-19 01:40:00,,0827.4,5.01,0.00,24.4,23.6,00.0,33.4,26.3,08.2,0004.2,0021.66,0007.59,0005.76
2021-11-19 01:41:00,,0827.3,5.00,0.00,24.4,23.6,00.0,33.4,26.2,08.2,0003.9,0020.97,0007.68,0005.81
2021-11-19 01:42:00,,0827.2,4.99,0.00,24.4,23.5,00.0,33.4,26.2,08.3,0003.4,0022.43,0007.78,0005.85
2021-11-19 01:43:00,,0827.2,4.99,0.00,24.4,23.5,00.0,33.4,26.2,08.4,0003.1,0024.59,0007.93,0005.87
2021-11-19 01:44:00,,0827.0,5.00,0.00,24.4,23.5,00.0,33.4,26.2,08.5,0002.5,0026.75,0008.04,0005.90
2021-11-19 01:45:00,,0827.2,5.00,0.00,24.4,23.5,00.0,33.4,26.2,08.6,0002.3,0026.99,0008.13,0005.92
2021-11-19 01:46:00,,0827.0,4.99,0.00,24.4,23.5,00.0,33.4,26.2,08.6,0001.9,0027.18,0008.19,0005.95
2021-11-19 01:47:00,,0827.2,5.01,0.00,24.3,23.5,00.0,33.4,26.1,08.5,0000.9,0028.07,0008.19,0005.97
2021-11-19 01:48:00,,0827.2,5.01,0.00,24.3,23.5,00.0,33.4,26.1,08.5,0000.6,0028.81,0008.23,0005.99
2021-11-19 01:49:00,,0827.2,4.99,0.00,24.3,23.5,00.0,33.4,26.1,08.5,0000.8,0029.22,0008.33,0005.98
2021-11-19 01:50:00,,0827.2,5.01,0.00,24.3,23.5,00.0,33.4,26.2,08.5,0000.5,0030.03,0008.39,0005.97
2021-11-19 01:51:00,,0827.2,5.01,0.00,24.3,23.5,00.0,33.4,26.1,08.5,0001.0,0030.01,0008.40,0005.95
2021-11-19 01:52:00,,0827.2,5.00,0.00,24.3,23.5,00.0,33.3,26.1,08.5,0001.8,0030.38,0008.34,0005.92
2021-11-19 01:53:00,,0827.3,4.99,0.00,24.3,23.4,00.0,33.3,26.1,08.5,0001.8,0031.27,0008.29,0005.89
2021-11-19 01:54:00,,0827.2,5.00,0.00,24.3,23.4,00.0,33.3,26.1,08.5,0002.1,0029.97,0008.17,0005.87
2021-11-19 01:55:00,,0827.2,5.00,0.00,24.3,23.5,00.0,33.3,26.1,08.5,0002.2,0029.72,0008.12,0005.84
2021-11-19 01:56:00,,0827.2,5.01,0.00,24.3,23.5,00.0,33.3,26.1,08.5,0000.0,0029.45,0008.06,0005.83
2021-11-19 01:57:00,,0827.2,4.99,0.00,24.3,23.5,00.0,33.3,26.1,08.5,0000.0,0029.81,0008.00,0005.81
2021-11-19 01:58:00,,0827.2,5.00,0.00,24.3,23.5,00.0,33.3,26.2,08.4,0000.9,0029.74,0007.99,0005.80
2021-11-19 01:59:00,,0827.2,5.00,0.00,24.3,23.5,00.0,33.3,26.2,08.4,0000.8,0029.18,0008.01,0005.80
